Frankfort, KY

1:28 AM EDT on April 30, 2017 (GMT -0400)
Capital City

Weather History for KFFT - October, 2013

Change the Weather History Date:

Wednesday, October 23, 2013

  Actual Average Record
Temperature  
Mean Temperature 42 °F 54 °F  
Max Temperature 47 °F 66 °F 88 °F (1947)
Min Temperature 37 °F 42 °F 20 °F (1952)
Degree Days  
Heating Degree Days 23 11  
Month to date heating degree days 174 188  
Since 1 July heating degree days 204 242  
Cooling Degree Days 0 0  
Month to date cooling degree days 40 15  
Year to date cooling degree days 1127 1150  
Moisture  
Dew Point 36 °F    
Average Humidity 70    
Maximum Humidity 86    
Minimum Humidity 53    
Precipitation  
Precipitation 0.02 in 0.12 in 3.76 in (2007)
Month to date precipitation 3.57 2.39  
Year to date precipitation 40.35 37.03  
Sea Level Pressure  
Sea Level Pressure 29.92 in    
Wind  
Wind Speed 8 mph (West)    
Max Wind Speed 18 mph    
Max Gust Speed 25 mph    
Visibility 10 miles    
Events Rain    
T = Trace of Precipitation, MM = Missing Value Source: NWS Daily Summary

Daily Weather History Graph

Daily Weather History Graph

Search for Another Location

Airport or City:

Trip Planner

Search our weather history database for the weather conditions in past years. The results will help you decide how hot, cold, wet, or windy it might be!

Date:

Astronomy

Oct. 23, 2013 Rise Set
Actual Time 7:56 AM EDT 6:50 PM EDT
Civil Twilight 7:29 AM EDT 7:17 PM EDT
Nautical Twilight 6:58 AM EDT 7:48 PM EDT
Astronomical Twilight 6:28 AM EDT 8:18 PM EDT
Moon 10:23 PM EDT (10/23) 12:10 PM EDT (10/23)
Length of Visible Light 11h 47m
Length of Day
10h 54m
Waning Gibbous, 79% of the Moon is Illuminated
Oct 23
Waning Gibbous
Oct 26
Last Quarter
Nov 3
New
Nov 10
First Quarter
Nov 17
Full

Hourly Weather History & Observations

Time (EDT) Temp. Windchill Dew Point Humidity Pressure Visibility Wind Dir Wind Speed Gust Speed Precip Events Conditions
12:53 AM 46.0 °F 43.9 °F 42.1 °F 86% 29.81 in 10.0 mi ESE 4.6 mph - N/A   Overcast
1:53 AM 46.0 °F 43.9 °F 39.0 °F 76% 29.78 in 10.0 mi SE 4.6 mph - N/A   Overcast
2:53 AM 46.0 °F 44.8 °F 42.1 °F 86% 29.77 in 10.0 mi SSW 3.5 mph - 0.00 in Rain Light Rain
3:53 AM 46.0 °F 41.9 °F 43.0 °F 89% 29.75 in 10.0 mi SW 8.1 mph - 0.01 in   Overcast
4:18 AM 46.4 °F 44.3 °F 42.8 °F 87% 29.75 in 10.0 mi WSW 4.6 mph - N/A   Overcast
4:53 AM 46.9 °F - 43.0 °F 86% 29.75 in 10.0 mi WSW 5.8 mph - N/A   Overcast
5:53 AM 46.9 °F - 42.1 °F 83% 29.76 in 10.0 mi West 9.2 mph 17.3 mph N/A   Overcast
6:53 AM 46.0 °F 40.6 °F 39.0 °F 76% 29.78 in 10.0 mi West 11.5 mph 20.7 mph N/A   Overcast
7:25 AM 42.8 °F 37.0 °F 41.0 °F 93% 29.79 in 5.0 mi West 10.4 mph 16.1 mph N/A   Overcast
7:53 AM 43.0 °F 38.2 °F 41.0 °F 93% 29.81 in 9.0 mi West 8.1 mph 20.7 mph 0.00 in Rain Light Rain
8:17 AM 42.8 °F 37.0 °F 39.2 °F 87% 29.83 in 10.0 mi WNW 10.4 mph 24.2 mph 0.00 in   Overcast
8:53 AM 41.0 °F 34.7 °F 37.0 °F 86% 29.87 in 10.0 mi WNW 10.4 mph 21.9 mph 0.01 in   Overcast
9:53 AM 39.0 °F 31.8 °F 36.0 °F 89% 29.92 in 10.0 mi WNW 11.5 mph 24.2 mph N/A   Overcast
10:53 AM 39.0 °F 32.8 °F 36.0 °F 89% 29.95 in 10.0 mi WNW 9.2 mph 19.6 mph N/A   Overcast
11:05 AM 39.2 °F 32.0 °F 35.6 °F 87% 29.95 in 10.0 mi NW 11.5 mph 23.0 mph N/A   Overcast
11:50 AM 41.0 °F 34.3 °F 35.6 °F 81% 29.97 in 10.0 mi WNW 11.5 mph - N/A   Overcast
11:53 AM 41.0 °F 35.8 °F 35.1 °F 79% 29.98 in 10.0 mi WNW 8.1 mph 16.1 mph N/A   Overcast
12:53 PM 44.1 °F 37.1 °F 34.0 °F 68% 30.00 in 10.0 mi NW 15.0 mph 20.7 mph N/A   Overcast
1:53 PM 44.1 °F 38.1 °F 34.0 °F 68% 30.00 in 9.0 mi WNW 11.5 mph 18.4 mph N/A   Overcast
2:03 PM 44.6 °F 38.8 °F 33.8 °F 66% 29.99 in 8.0 mi NW 11.5 mph 19.6 mph N/A   Overcast
2:53 PM 45.0 °F 40.1 °F 32.0 °F 60% 30.01 in 10.0 mi West 9.2 mph 17.3 mph N/A   Overcast
3:53 PM 46.9 °F - 32.0 °F 56% 30.00 in 10.0 mi Variable 6.9 mph - N/A   Overcast
4:53 PM 46.0 °F 41.0 °F 30.9 °F 56% 30.03 in 10.0 mi West 10.4 mph 18.4 mph N/A   Overcast
5:53 PM 46.0 °F 41.4 °F 30.0 °F 54% 30.03 in 10.0 mi West 9.2 mph - N/A   Overcast
6:53 PM 43.0 °F - 30.0 °F 60% 30.04 in 10.0 mi Calm Calm - N/A   Partly Cloudy
7:53 PM 42.1 °F 39.2 °F 30.9 °F 65% 30.06 in 10.0 mi West 4.6 mph - N/A   Mostly Cloudy
8:53 PM 39.9 °F 36.7 °F 33.1 °F 77% 30.07 in 10.0 mi WSW 4.6 mph - N/A   Overcast
9:53 PM 39.9 °F 36.7 °F 32.0 °F 73% 30.07 in 10.0 mi WSW 4.6 mph - N/A   Mostly Cloudy
10:53 PM 37.9 °F 34.4 °F 33.1 °F 83% 30.08 in 10.0 mi SW 4.6 mph - N/A   Overcast
11:53 PM 39.0 °F 35.7 °F 34.0 °F 82% 30.09 in 10.0 mi WSW 4.6 mph - N/A   Overcast